sat.trackr.live / text

‹ back to catalog

STARLINK-31028

NORAD 58516 · 2023-191J

PAYLOAD ACTIVE UNKNOWN

§ Identity

Operator
Country
US
Launch date
2023-12-07
Launch site
AFETR
Launch vehicle
Mass (kg)
RCS (m²)

Purposes: comms

External: N2YO · Heavens-Above · Gunter

§ Orbital elements

Epoch: 2026-09-20T22:08:36.882240Z

Period
94.27 min
Inclination
43.0029°
Eccentricity
0.0001292
Mean motion
15.27534621 rev/d
Perigee alt
482.3 km
Apogee alt
484.1 km
Semi-major
6,861.3 km
B*
-2.6696e-4
RAAN
80.5216°
Arg perigee
14.6740°
Mean anomaly
345.4149°
Rev number
15,533

§ Raw data

STARLINK-310281 58516U 23191J   26263.92264910 -.00007590  00000+0 -26696-3 0  99972 58516  43.0029  80.5216 0001292  14.6740 345.4149 15.27534621155336

JSON: /api/v1/satellites/58516 · /tle

For live sub-satellite position, see the globe view (requires WebGL).

§ Visibility from observer

Set your observer location to see the next 7 days of passes ≥ 10°. The values pass through the URL so the page stays shareable.

No JS? Fill the form by hand. The geolocation button needs JavaScript.